DW3361 Weather Reports


time (UTC)temp
C
wind
direction
speed
KPH
gust
KPH
rain 1hr
cm
rain 24hr
cm
rain mn
cm
humidity
%
barometer
mb
20190426104208 21 171 3.2 14.5 0.00 0.00 0.00 56 1011.1
20190426103208 21 190 3.2 19.3 0.00 0.00 0.00 56 1011.2
20190426102208 21 182 6.4 19.3 0.00 0.00 0.00 55 1011.2
20190426101209 21 249 6.4 20.9 0.00 0.00 0.00 55 1011.4
20190426100207 21 164 4.8 20.9 0.00 0.00 0.00 57 1011.5
20190426095210 21 132 6.4 19.3 0.00 0.00 0.00 57 1011.5
20190426094208 21 173 3.2 9.7 0.00 0.00 0.00 62 1011.5
20190426093212 20 101 3.2 6.4 0.00 0.00 0.00 65 1011.7
20190426092208 20 61 1.6 6.4 0.00 0.00 0.00 66 1011.6
20190426091207 20 61 1.6 6.4 0.00 0.00 0.00 65 1011.6
20190426090207 19 55 1.6 4.8 0.00 0.00 0.00 67 1011.7
20190426085207 19 135 0.0 4.8 0.00 0.00 0.00 68 1011.7
20190426084207 19 136 0.0 0.0 0.00 0.00 0.00 65 1011.7
20190426083218 19 136 0.0 3.2 0.00 0.00 0.00 64 1011.7
20190426082213 19 157 0.0 1.6 0.00 0.00 0.00 65 1011.7
20190426081206 18 157 0.0 1.6 0.00 0.00 0.00 66 1011.7
20190426080207 18 272 0.0 4.8 0.00 0.00 0.00 68 1011.8
20190426075206 18 217 1.6 6.4 0.00 0.00 0.00 67 1012.0
20190426074215 18 227 1.6 11.3 0.00 0.00 0.00 67 1011.9
20190426073207 17 173 6.4 14.5 0.00 0.00 0.00 67 1012.1
20190426072232 17 248 4.8 14.5 0.00 0.00 0.00 71 1012.1
20190426071211 15 195 1.6 6.4 0.00 0.00 0.00 79 1012.1
20190426070207 14 218 0.0 0.0 0.00 0.00 0.00 83 1012.2
20190426065219 14 218 0.0 0.0 0.00 0.00 0.00 83 1012.3
20190426064208 14 218 0.0 1.6 0.00 0.00 0.00 82 1012.3
20190426063206 14 218 0.0 1.6 0.00 0.00 0.00 79 1012.4
20190426062207 14 218 0.0 1.6 0.00 0.00 0.00 81 1012.4
20190426061210 14 218 0.0 3.2 0.00 0.00 0.00 79 1012.5
20190426060210 14 218 0.0 11.3 0.00 0.00 0.00 79 1012.5
20190426055207 14 217 1.6 11.3 0.00 0.00 0.00 77 1012.4
20190426054207 13 157 0.0 1.6 0.00 0.00 0.00 79 1012.4
20190426053208 13 160 0.0 1.6 0.00 0.00 0.00 78 1012.6
20190426052207 13 160 0.0 1.6 0.00 0.00 0.00 79 1012.5
20190426051206 13 159 0.0 6.4 0.00 0.00 0.00 77 1012.4
20190426050207 13 159 0.0 6.4 0.00 0.00 0.00 77 1012.3
20190426045207 13 160 0.0 6.4 0.00 0.00 0.00 77 1012.3
20190426044207 14 160 1.6 6.4 0.00 0.00 0.00 76 1012.2
20190426043206 15 160 0.0 6.4 0.00 0.00 0.00 72 1012.2
20190426042206 16 160 1.6 9.7 0.00 0.00 0.00 68 1012.2
20190426041207 16 213 3.2 9.7 0.00 0.00 0.00 63 1012.1
20190426040208 16 193 1.6 19.3 0.00 0.00 0.00 64 1012.1
20190426035207 16 190 3.2 16.1 0.00 0.00 0.00 63 1012.2
20190426034207 16 188 3.2 16.1 0.00 0.00 0.00 65 1012.2
20190426033207 15 196 0.0 0.0 0.00 0.00 0.00 71 1012.2
20190426032207 13 195 0.0 0.0 0.00 0.00 0.00 77 1012.2
20190426031207 12 157 0.0 0.0 0.00 0.00 0.00 84 1012.3
20190426030207 12 157 0.0 0.0 0.00 0.00 0.00 85 1012.4
20190426025207 12 157 0.0 0.0 0.00 0.00 0.00 85 1012.4
20190426024206 12 157 0.0 0.0 0.00 0.00 0.00 85 1012.4
20190426023207 12 157 0.0 0.0 0.00 0.00 0.00 83 1012.5
20190426022209 12 157 0.0 0.0 0.00 0.00 0.00 82 1012.6
20190426021207 13 157 0.0 0.0 0.00 0.00 0.00 81 1012.6
20190426020207 13 157 0.0 0.0 0.00 0.00 0.00 80 1012.7
20190426015208 13 157 0.0 0.0 0.00 0.00 0.00 79 1012.7
20190426014209 13 157 0.0 0.0 0.00 0.00 0.00 79 1012.7
20190426013218 13 157 0.0 0.0 0.00 0.00 0.00 79 1012.8
20190426012207 13 157 0.0 0.0 0.00 0.00 0.00 78 1012.9
20190426011206 13 157 0.0 0.0 0.00 0.00 0.00 78 1012.9
20190426010206 14 157 0.0 0.0 0.00 0.00 0.00 77 1013.0
20190426005225 14 157 0.0 0.0 0.00 0.00 0.00 76 1013.1
20190426004207 14 157 0.0 0.0 0.00 0.00 0.00 74 1013.0
20190426003207 14 157 0.0 0.0 0.00 0.00 0.00 74 1013.1
20190426002207 14 157 0.0 1.6 0.00 0.00 0.00 74 1013.2
20190426001207 15 157 0.0 3.2 0.00 0.00 0.00 73 1013.2
20190426000216 15 157 1.6 3.2 0.00 0.00 0.00 73 1013.4
20190425235207 15 157 0.0 4.8 0.00 0.00 0.00 70 1013.5
20190425234207 15 157 3.2 4.8 0.00 0.00 0.00 70 1013.7
20190425233207 15 157 1.6 4.8 0.00 0.00 0.00 70 1013.7
20190425232208 15 157 0.0 4.8 0.00 0.00 0.00 69 1013.9
20190425231206 16 157 1.6 11.3 0.00 0.00 0.00 68 1014.1
20190425230212 15 198 1.6 8.0 0.00 0.00 0.00 68 1014.1
20190425225207 14 150 0.0 0.0 0.00 0.00 0.00 72 1014.0
20190425224207 14 150 0.0 3.2 0.00 0.00 0.00 74 1014.1
20190425223207 14 150 0.0 1.6 0.00 0.00 0.00 74 1014.0
20190425222208 14 150 0.0 1.6 0.00 0.00 0.00 74 1014.2
20190425221206 14 150 0.0 0.0 0.00 0.00 0.00 73 1014.2
20190425220225 15 150 0.0 0.0 0.00 0.00 0.00 72 1014.3
20190425215207 15 150 0.0 3.2 0.00 0.00 0.00 72 1014.4
20190425214207 15 150 0.0 3.2 0.00 0.00 0.00 70 1014.3
20190425213206 16 150 0.0 0.0 0.00 0.00 0.00 68 1014.3
20190425212208 16 150 0.0 0.0 0.00 0.00 0.00 65 1014.4
20190425211206 17 150 0.0 0.0 0.00 0.00 0.00 62 1014.4
20190425210209 17 150 0.0 11.3 0.00 0.00 0.00 61 1014.5
20190425205211 17 150 1.6 11.3 0.00 0.00 0.00 60 1014.4
20190425204207 17 113 0.0 6.4 0.00 0.00 0.00 59 1014.3
20190425203206 17 158 0.0 4.8 0.00 0.00 0.00 60 1014.2
20190425202208 17 158 1.6 6.4 0.00 0.00 0.00 60 1014.4
20190425201206 17 182 0.0 6.4 0.00 0.00 0.00 61 1014.4
20190425200208 17 176 0.0 3.2 0.00 0.00 0.00 60 1014.4
20190425195220 17 176 0.0 3.2 0.00 0.00 0.00 57 1014.2
20190425194207 17 176 0.0 1.6 0.00 0.00 0.00 54 1014.2
20190425193208 18 176 1.6 9.7 0.00 0.00 0.00 54 1014.3
20190425192209 18 165 3.2 8.0 0.00 0.00 0.00 53 1014.2
20190425191206 18 187 1.6 9.7 0.00 0.00 0.00 52 1014.2
20190425190208 18 181 4.8 17.7 0.00 0.00 0.00 51 1014.0
20190425185207 19 182 6.4 22.5 0.00 0.00 0.00 49 1014.0
20190425184217 18 180 4.8 14.5 0.00 0.00 0.00 51 1013.8
20190425183213 19 202 4.8 22.5 0.00 0.00 0.00 50 1013.7
20190425182207 19 194 6.4 22.5 0.00 0.00 0.00 50 1013.6
20190425181207 19 138 4.8 17.7 0.00 0.00 0.00 50 1013.5
20190425180215 20 164 4.8 17.7 0.00 0.00 0.00 50 1013.4
20190425175209 20 171 6.4 17.7 0.00 0.00 0.00 50 1013.3
20190425174208 21 188 6.4 27.4 0.00 0.00 0.00 47 1013.2
20190425173206 21 200 11.3 27.4 0.00 0.00 0.00 43 1013.1
20190425172207 21 209 8.0 22.5 0.00 0.00 0.00 43 1013.1
20190425171208 21 217 8.0 22.5 0.00 0.00 0.00 42 1013.1
20190425170207 22 200 11.3 25.7 0.00 0.00 0.00 42 1013.0
20190425165231 22 267 9.7 20.9 0.00 0.00 0.00 42 1012.8
20190425164208 22 196 11.3 25.7 0.00 0.00 0.00 40 1012.6
20190425163213 23 157 9.7 25.7 0.00 0.00 0.00 40 1012.8
20190425162208 24 174 6.4 16.1 0.00 0.00 0.00 42 1012.5
20190425161207 24 184 6.4 20.9 0.00 0.00 0.00 41 1012.4
20190425160227 23 164 6.4 16.1 0.00 0.00 0.00 41 1012.3
20190425155208 23 166 6.4 19.3 0.00 0.00 0.00 44 1012.3
20190425154208 24 175 6.4 19.3 0.00 0.00 0.00 41 1012.4
20190425153208 24 254 8.0 17.7 0.00 0.00 0.00 42 1012.3
20190425152210 25 157 6.4 16.1 0.00 0.00 0.00 39 1012.3
20190425151206 25 192 6.4 22.5 0.00 0.00 0.00 40 1012.3
20190425150208 25 182 8.0 20.9 0.00 0.00 0.00 39 1012.3
20190425145206 25 191 8.0 22.5 0.00 0.00 0.00 39 1012.4
20190425144208 26 194 8.0 22.5 0.00 0.00 0.00 38 1012.6
20190425143219 26 180 6.4 16.1 0.00 0.00 0.00 38 1012.5
20190425142207 26 175 3.2 19.3 0.00 0.00 0.00 38 1012.7
20190425141209 26 159 6.4 16.1 0.00 0.00 0.00 36 1012.6
20190425140208 26 153 4.8 19.3 0.00 0.00 0.00 37 1012.7
20190425135207 26 153 4.8 24.1 0.00 0.00 0.00 36 1012.8
20190425134210 26 167 6.4 24.1 0.00 0.00 0.00 37 1013.0
20190425133206 26 175 6.4 19.3 0.00 0.00 0.00 40 1013.0
20190425132210 26 194 8.0 20.9 0.00 0.00 0.00 39 1013.1
20190425131207 26 209 6.4 19.3 0.00 0.00 0.00 39 1013.1
20190425130208 26 184 4.8 16.1 0.00 0.00 0.00 40 1013.2
20190425125207 26 207 6.4 22.5 0.00 0.00 0.00 41 1013.3
20190425124206 26 147 4.8 19.3 0.00 0.00 0.00 40 1013.4
20190425123213 25 158 6.4 20.9 0.00 0.00 0.00 41 1013.5
20190425122208 25 155 8.0 20.9 0.00 0.00 0.00 40 1013.6
20190425121207 25 188 6.4 19.3 0.00 0.00 0.00 42 1013.8
20190425120218 25 169 8.0 22.5 0.00 0.00 0.00 44 1014.0
20190425115213 25 134 6.4 24.1 0.00 0.00 0.00 46 1013.8
20190425114213 25 182 8.0 27.4 0.00 0.00 0.00 45 1013.9
20190425113207 25 180 6.4 19.3 0.00 0.00 0.00 44 1013.9
20190425112208 25 152 6.4 19.3 0.00 0.00 0.00 47 1013.9
20190425111207 24 178 6.4 20.9 0.00 0.00 0.00 49 1014.0
20190425110208 24 160 6.4 19.3 0.00 0.00 0.00 47 1014.0
20190425105209 23 175 6.4 17.7 0.00 0.00 0.00 52 1014.1